Regional Weather Roundup
Issued by NWS

Home | Current Version | Previous Version | Graphics & Text | Print | Product List | Glossary On
Versions: 1 2 3 4 5 6 7 8 9 10 11 12 13 14 15 16 17 18 19 20 21 22 23 24 25 26 27 28 29 30 31 32 33 34 35 36 37 38 39 40 41 42 43 44 45 46 47 48 49 50
000
ASUS45 KABQ 211901
RWRNM
NEW MEXICO REGIONAL WEATHER ROUNDUP
NATIONAL WEATHER SERVICE ALBUQUERQUE NM
100 PM MDT MON AUG 21 2017

NOTE: "FAIR" MEANS FEW OR NO CLOUDS BELOW 12,000 FEET AGL WITH NO
       SIGNIFICANT WEATHER OR OBSTRUCTIONS TO VISION.

      THIS PRODUCT IS RELEASED AS TWO VERSIONS.  ONE VERSION NEAR
      THE TOP OF THE HOUR CONTAINING PRELIMINARY DATA FROM ALBUQUERQUE
      AND OTHER STATIONS.  A FINAL VERSION WITH ADDITIONAL DATA IS
      ISSUED ABOUT 10 MINUTES AFTER THE HOUR.

NMZ501-503-504-510>518-212000-
NORTHWEST PLATEAU/NORTHCENTRAL MOUNTAINS

CITY           SKY/WX    TMP DP  RH WIND       PRES   REMARKS
FARMINGTON     FAIR      75  51  43 VRB6      30.21S
LOS ALAMOS     CLOUDY    64  55  74 S7        30.34S
SANTA FE       CLOUDY    68  60  75 W8        30.28S
TAOS           CLOUDY    67  55  65 W7        30.34S
ANGEL FIRE     FAIR      64  51  61 W8        30.39S

$$
NMZ402-403-502-505>509-212000-
WESTCENTRAL MOUNTAINS/SOUTHWEST MOUNTAINS

CITY           SKY/WX    TMP DP  RH WIND       PRES   REMARKS
GALLUP         CLOUDY    72  46  39 CALM      30.29S
GRANTS         CLOUDY    71  49  45 CALM      30.31S
SILVER CITY    CLOUDY    74  56  53 S5        30.24S

$$
NMZ407-409-411-412-212000-
SOUTHERN DESERTS

CITY           SKY/WX    TMP DP  RH WIND       PRES   REMARKS
DEMING         FAIR      79  63  57 S7        30.18S
LAS CRUCES     PTSUNNY   77  64  62 S6        30.20S
HOLLOMAN AFB   FAIR      78  66  68 SE5       30.19S
ALAMOGORDO     FAIR      77  64  65 S10       30.19S
T OR C         FAIR      79  57  46 S8        30.18F

$$
NMZ519>523-212000-
CENTRAL VALLEYS/CENTRAL HIGHLANDS

CITY           SKY/WX    TMP DP  RH WIND       PRES   REMARKS
ALBUQUERQUE    FAIR      70  58  65 SW7       30.25S
DOUBLE EAGLE   PTSUNNY   66  57  72 CALM      30.28S
CLINES CORNERS FAIR      67  55  65 W13       30.32S
BELEN          NOT AVBL
SOCORRO        NOT AVBL

$$
NMZ524>526-539-540-212000-
SOUTHCENTRAL MOUNTAINS

CITY           SKY/WX    TMP DP  RH WIND       PRES   REMARKS
RUIDOSO        PTSUNNY   70  54  56 SW14      30.34S

$$
NMZ527>531-212000-
NORTHEAST HIGHLANDS/NORTHEAST PLAINS

CITY           SKY/WX    TMP DP  RH WIND       PRES   REMARKS
LAS VEGAS      FAIR      67  57  70 S14G22    30.29S
RATON          FAIR      71  54  54 S8        30.24S
CLAYTON        FAIR      76  63  64 SW13G21   30.15S

$$
NMZ532>537-212000-
EASTCENTRAL PLAINS

CITY           SKY/WX    TMP DP  RH WIND       PRES   REMARKS
SANTA ROSA     FAIR      73  64  72 S6        30.18S
TUCUMCARI      PTSUNNY   80  67  64 S14       30.12F
CANNON AFB     FAIR      76  72  88 S12       30.19F
CLOVIS AIRPORT PTSUNNY   76  67  73 S14       30.19F

$$
NMZ028-029-538-212000-
SOUTHEAST PLAINS

CITY           SKY/WX    TMP DP  RH WIND       PRES   REMARKS
ROSWELL        FAIR      82  64  54 S13       30.14S
ARTESIA        FAIR      79  68  69 SE15      30.14F
CARLSBAD       FAIR      78  69  73 SE10      30.13F
HOBBS          PTSUNNY   77  66  69 S10       30.17S


$$




USA.gov is the U.S. government's official web portal to all federal, state and local government web resources and services.